When you browse on this site, cookies collect data to enhance your experience and personalize the content and advertising you see.
Visit our Privacy Policy to learn more. By continuing to use the site, you agree to this use of cookies and data.
  • In Hungary
  • List of Countries
  • For 7 days
  • Water Temperature
  • Satellite Maps
  • Weather Map
  • News
  • Weather Widgets
  • user-avatar
    Login

    Hourly Weather Haora

    Today, 22 July, Monday

    Time Temperature Precipitation Wind Pressure Humidity
    00:00 +33°C° 0 mm 4 mps 752 mmHg 70%
    01:00 +33°C° 0 mm 4 mps 752 mmHg 72%
    02:00 +32°C° 0 mm 4 mps 752 mmHg 75%
    03:00 +32°C° 0 mm 4 mps 751 mmHg 77%
    04:00 +32°C° 0 mm 4 mps 751 mmHg 77%
    05:00 +32°C° 0 mm 4 mps 751 mmHg 77%
    06:00 +31°C° 0 mm 3 mps 751 mmHg 77%
    07:00 +33°C° 0 mm 3 mps 752 mmHg 72%
    08:00 +34°C° 0 mm 4 mps 752 mmHg 67%
    09:00 +35°C° 0 mm 4 mps 753 mmHg 62%
    10:00 +36°C° 0 mm 5 mps 752 mmHg 57%
    11:00 +39°C° 0 mm 5 mps 752 mmHg 52%
    12:00 +40°C° 0 mm 4 mps 752 mmHg 45%
    13:00 +40°C° 0 mm 4 mps 751 mmHg 45%
    14:00 +40°C° 0 mm 5 mps 751 mmHg 44%
    15:00 +40°C° 0 mm 5 mps 750 mmHg 44%
    16:00 +39°C° 0 mm 6 mps 750 mmHg 48%
    17:00 +38°C° 0 mm 6 mps 750 mmHg 52%
    18:00 +36°C° 0 mm 6 mps 750 mmHg 57%
    19:00 +35°C° 0 mm 6 mps 750 mmHg 60%
    20:00 +34°C° 0 mm 6 mps 751 mmHg 64%
    21:00 +33°C° 0 mm 6 mps 752 mmHg 67%
    22:00 +33°C° 0 mm 6 mps 752 mmHg 69%
    23:00 +33°C° 0 mm 5 mps 752 mmHg 71%

    Tomorrow, 23 July, Tuesday

    Time Temperature Precipitation Wind Pressure Humidity
    00:00 +32°C° 0 mm 5 mps 752 mmHg 73%
    01:00 +32°C° 0 mm 5 mps 751 mmHg 75%
    02:00 +32°C° 0 mm 5 mps 751 mmHg 76%
    03:00 +32°C° 0 mm 5 mps 751 mmHg 77%
    04:00 +32°C° 0 mm 5 mps 751 mmHg 77%
    05:00 +32°C° 0 mm 4 mps 751 mmHg 77%
    06:00 +32°C° 0 mm 4 mps 751 mmHg 77%
    07:00 +33°C° 0 mm 4 mps 751 mmHg 70%
    08:00 +34°C° 0 mm 4 mps 751 mmHg 64%
    09:00 +35°C° 0 mm 5 mps 752 mmHg 58%
    10:00 +37°C° 0 mm 5 mps 751 mmHg 52%
    11:00 +39°C° 0 mm 5 mps 751 mmHg 46%
    12:00 +41°C° 0 mm 5 mps 751 mmHg 40%
    13:00 +41°C° 0 mm 5 mps 750 mmHg 39%
    14:00 +41°C° 0 mm 5 mps 750 mmHg 39%
    15:00 +41°C° 0 mm 5 mps 749 mmHg 38%
    16:00 +40°C° 0 mm 6 mps 749 mmHg 43%
    17:00 +39°C° 0 mm 6 mps 749 mmHg 47%
    18:00 +38°C° 0 mm 6 mps 749 mmHg 51%
    19:00 +35°C° 0 mm 6 mps 749 mmHg 57%
    20:00 +34°C° 0 mm 6 mps 750 mmHg 62%
    21:00 +33°C° 0 mm 6 mps 750 mmHg 68%
    22:00 +33°C° 0 mm 6 mps 750 mmHg 70%
    23:00 +33°C° 0 mm 5 mps 750 mmHg 72%

    Day after tomorrow, 24 July, Wednesday

    Time Temperature Precipitation Wind Pressure Humidity
    00:00 +33°C° 0 mm 5 mps 751 mmHg 74%
    01:00 +32°C° 0 mm 5 mps 750 mmHg 74%
    02:00 +32°C° 0 mm 5 mps 750 mmHg 74%
    03:00 +32°C° 0 mm 5 mps 749 mmHg 74%
    04:00 +32°C° 0 mm 4 mps 749 mmHg 75%
    05:00 +32°C° 0 mm 4 mps 749 mmHg 76%
    06:00 +31°C° 0 mm 3 mps 749 mmHg 77%
    07:00 +33°C° 0 mm 4 mps 750 mmHg 71%
    08:00 +34°C° 0 mm 4 mps 750 mmHg 65%
    09:00 +36°C° 0 mm 4 mps 750 mmHg 58%
    10:00 +37°C° 0 mm 4 mps 750 mmHg 53%
    11:00 +38°C° 0 mm 4 mps 750 mmHg 48%
    12:00 +40°C° 0 mm 4 mps 749 mmHg 43%
    13:00 +41°C° 0 mm 4 mps 749 mmHg 42%
    14:00 +41°C° 0 mm 4 mps 748 mmHg 42%
    15:00 +41°C° 0 mm 5 mps 748 mmHg 41%
    16:00 +40°C° 0 mm 5 mps 748 mmHg 44%
    17:00 +39°C° 0 mm 5 mps 748 mmHg 47%
    18:00 +37°C° 0 mm 5 mps 748 mmHg 50%
    19:00 +36°C° 0.4 mm 5 mps 749 mmHg 57%
    20:00 +35°C° 0.4 mm 5 mps 750 mmHg 64%
    21:00 +33°C° 0.4 mm 5 mps 750 mmHg 70%
    22:00 +33°C° 1.6 mm 5 mps 750 mmHg 71%
    23:00 +33°C° 1.6 mm 5 mps 750 mmHg 71%

    25 July, Thursday

    Time Temperature Precipitation Wind Pressure Humidity
    00:00 +33°C° 1.6 mm 4 mps 750 mmHg 71%
    01:00 +33°C° 0.2 mm 4 mps 750 mmHg 72%
    02:00 +33°C° 0.2 mm 3 mps 749 mmHg 73%
    03:00 +32°C° 0.2 mm 2 mps 749 mmHg 74%
    04:00 +31°C° 0.5 mm 2 mps 749 mmHg 76%
    05:00 +31°C° 0.5 mm 2 mps 749 mmHg 78%
    06:00 +31°C° 0.5 mm 2 mps 749 mmHg 80%
    07:00 +31°C° 0.9 mm 2 mps 750 mmHg 77%
    08:00 +33°C° 0.9 mm 3 mps 750 mmHg 73%
    09:00 +34°C° 0.9 mm 3 mps 751 mmHg 70%
    10:00 +35°C° 1.4 mm 2 mps 750 mmHg 64%
    11:00 +36°C° 1.4 mm 2 mps 750 mmHg 58%
    12:00 +37°C° 1.4 mm 2 mps 750 mmHg 53%
    13:00 +37°C° 2.3 mm 3 mps 750 mmHg 55%
    14:00 +37°C° 2.3 mm 4 mps 749 mmHg 57%
    15:00 +36°C° 2.3 mm 5 mps 749 mmHg 59%
    16:00 +35°C° 1.1 mm 5 mps 749 mmHg 62%
    17:00 +34°C° 1.1 mm 5 mps 749 mmHg 66%
    18:00 +33°C° 1.1 mm 5 mps 749 mmHg 70%
    19:00 +33°C° 0 mm 5 mps 749 mmHg 72%
    20:00 +32°C° 0 mm 5 mps 750 mmHg 74%
    21:00 +32°C° 0 mm 5 mps 751 mmHg 76%
    22:00 +32°C° 0.1 mm 4 mps 750 mmHg 77%
    23:00 +31°C° 0.1 mm 3 mps 750 mmHg 77%

    26 July, Friday

    Time Temperature Precipitation Wind Pressure Humidity
    00:00 +31°C° 0.1 mm 3 mps 750 mmHg 78%
    01:00 +30°C° 0.4 mm 2 mps 750 mmHg 78%
    02:00 +30°C° 0.4 mm 2 mps 750 mmHg 79%
    03:00 +30°C° 0.4 mm 2 mps 749 mmHg 79%
    04:00 +30°C° 0.3 mm 2 mps 749 mmHg 80%
    05:00 +30°C° 0.3 mm 3 mps 750 mmHg 81%
    06:00 +30°C° 0.3 mm 3 mps 750 mmHg 81%
    07:00 +30°C° 0.1 mm 3 mps 750 mmHg 80%
    08:00 +30°C° 0.1 mm 3 mps 750 mmHg 78%
    09:00 +30°C° 0.1 mm 3 mps 751 mmHg 77%
    10:00 +31°C° 0.1 mm 3 mps 751 mmHg 74%
    11:00 +31°C° 0.1 mm 3 mps 750 mmHg 71%
    12:00 +33°C° 0.1 mm 4 mps 750 mmHg 68%
    13:00 +34°C° 0 mm 4 mps 749 mmHg 64%
    14:00 +35°C° 0 mm 4 mps 749 mmHg 59%
    15:00 +36°C° 0 mm 4 mps 748 mmHg 54%
    16:00 +36°C° 0 mm 5 mps 748 mmHg 58%
    17:00 +35°C° 0 mm 5 mps 748 mmHg 61%
    18:00 +34°C° 0 mm 6 mps 748 mmHg 65%
    19:00 +33°C° 0 mm 5 mps 749 mmHg 69%
    20:00 +33°C° 0 mm 5 mps 749 mmHg 73%
    21:00 +32°C° 0 mm 5 mps 750 mmHg 76%
    22:00 +32°C° 0.6 mm 5 mps 750 mmHg 77%
    23:00 +32°C° 0.6 mm 4 mps 750 mmHg 77%

    27 July, Saturday

    Time Temperature Precipitation Wind Pressure Humidity
    00:00 +32°C° 0.6 mm 4 mps 750 mmHg 77%
    01:00 +32°C° 0.4 mm 4 mps 749 mmHg 78%
    02:00 +30°C° 0.4 mm 4 mps 749 mmHg 79%
    03:00 +30°C° 0.4 mm 3 mps 749 mmHg 79%
    04:00 +30°C° 0 mm 3 mps 749 mmHg 80%
    05:00 +30°C° 0 mm 3 mps 749 mmHg 80%
    06:00 +30°C° 0 mm 3 mps 749 mmHg 81%
    07:00 +31°C° 0 mm 3 mps 749 mmHg 78%
    08:00 +32°C° 0 mm 4 mps 750 mmHg 74%
    09:00 +33°C° 0 mm 4 mps 750 mmHg 71%
    10:00 +34°C° 0.9 mm 4 mps 750 mmHg 68%
    11:00 +35°C° 0.9 mm 5 mps 749 mmHg 65%
    12:00 +36°C° 0.9 mm 5 mps 749 mmHg 62%
    13:00 +35°C° 0.6 mm 6 mps 749 mmHg 63%
    14:00 +35°C° 0.6 mm 6 mps 748 mmHg 63%
    15:00 +35°C° 0.6 mm 6 mps 748 mmHg 63%
    16:00 +35°C° 0.1 mm 6 mps 748 mmHg 65%
    17:00 +34°C° 0.1 mm 6 mps 748 mmHg 68%
    18:00 +33°C° 0.1 mm 6 mps 748 mmHg 70%
    19:00 +33°C° 0 mm 5 mps 748 mmHg 73%
    20:00 +32°C° 0 mm 5 mps 749 mmHg 75%
    21:00 +32°C° 0 mm 5 mps 749 mmHg 78%
    22:00 +32°C° 0.1 mm 5 mps 750 mmHg 78%
    23:00 +30°C° 0.1 mm 4 mps 750 mmHg 79%
    Show more